Temperature
13 13 13 13 13 13 13 14 14 14 14 15 15 15 15 15 15 15 16 16 16 16 16 16 16 16 16 16 16 16 16 16 16 16 16 16 16 16
13 13 13 13 13 13 13 13 14 14 14 14 14 14 15 15 15 15 15 15 15 16 16 16 16 16 16 16 16 16 16 16 16 16 16 16 16 16
13 13 13 13 13 13 13 13 13 13 13 14 14 14 14 14 15 15 15 15 15 15 15 15 15 15 16 16 16 16 16 16 16 16 16 16 16 16
13 13 13 13 13 13 13 13 13 13 13 13 14 14 14 14 14 14 15 15 15 15 15 15 15 15 15 15 15 16 16 16 16 16 16 16 16 16
13 13 13 13 13 13 13 13 13 13 13 13 13 13 13 14 14 14 14 14 14 14 14 14 15 15 15 15 15 15 15 15 15 15 15 15 15 16
13 13 13 13 13 13 13 12 12 13 13 13 13 13 13 13 13 13 14 14 14 14 14 14 14 14 14 15 15 15 15 15 15 15 15 15 15 15
13 13 13 13 13 13 13 13 12 13 13 13 13 13 13 13 13 13 13 13 14 14 14 14 14 14 14 14 14 14 15 15 15 15 15 15 15 15
13 13 13 13 13 13 12 12 12 12 12 12 12 12 13 12 13 13 13 13 13 13 13 14 14 14 14 14 14 14 14 14 14 14 14 14 15 15
13 13 13 13 12 12 12 12 12 12 12 12 12 12 12 12 12 12 12 12 13 13 13 13 13 13 14 14 14 14 14 14 14 14 14 14 14 14
12 12 12 12 12 12 12 12 12 12 12 12 12 12 12 12 12 12 12 12 12 12 12 13 13 13 13 13 13 13 13 14 14 14 14 14 14 14
12 12 12 12 12 12 12 12 12 12 12 12 11 11 11 12 12 12 12 12 12 12 12 12 12 13 13 13 13 13 13 13 13 13 13 13 13 13
12 12 12 12 12 12 12 12 12 12 11 11 11 11 11 11 11 11 11 11 11 11 11 11 12 12 12 13 13 13 13 13 13 13 13 13 13 13
12 11 11 11 11 11 11 11 11 11 11 11 11 11 11 11 11 11 11 11 11 11 11 11 11 11 11 11 12 12 12 12 12 12 12 12 12 12
11 11 11 11 11 11 11 11 11 11 11 11 11 11 11 11 11 10 10 10 10 10 10 10 10 10 10 10 11 11 11 11 11 12 12 12 12 12
11 11 11 10 10 10 10 10 10 10 10 10 10 10 10 10 10 10 10 10 10 9 9 9 9 9 9 9 9 10 10 11 11 11 11 11 11 11
11 10 10 10 10 10 10 10 10 10 9 9 9 9 9 9 9 9 9 9 9 9 9 9 9 9 9 9 9 9 9 9 9 10 10 10 10 10
10 10 10 9 9 9 9 9 9 9 9 9 9 9 9 9 9 9 9 9 9 9 9 9 8 8 8 8 8 8 8 8 8 9 9 9 10 10
10 10 9 9 9 9 9 8 8 8 8 8 8 8 8 8 8 8 8 8 8 8 8 8 8 8 8 8 7 7 7 7 8 8 8 8 9 9
10 9 9 9 9 8 8 8 8 8 8 8 7 7 7 7 7 7 7 7 7 6 6 6 6 6 6 6 7 7 6 6 7 7 7 7 7 8
9 9 9 9 8 8 8 8 7 7 7 7 7 7 7 6 6 6 6 6 6 6 5 5 5 5 4 4 5 6 5 5 5 5 6 6 7 7
9 9 8 8 8 8 7 7 7 7 7 6 6 6 6 6 5 5 5 5 5 5 5 5 4 4 4 4 4 5 5 4 4 4 4 4 5 6
9 8 8 8 7 7 7 7 7 6 6 6 6 5 5 5 5 5 4 4 4 4 4 4 4 4 3 3 3 4 4 5 4 4 3 3 3 3
8 8 8 7 7 7 7 6 6 6 6 5 5 5 4 4 4 4 4 4 3 3 3 3 3 3 3 3 2 3 3 3 4 4 4 4 3 3
Wind_Speed
1 1 1 0 0 1 1 2 3 1 1 2 2 2 2 1 1 1 2 6 8 10 11 12 13 14 14 14 15 17 17 18 19 20 20 20 20 20
1 1 0 0 0 0 1 1 2 3 1 2 2 2 2 1 0 1 2 4 7 8 10 11 12 13 13 14 14 15 16 17 17 18 19 20 21 21
0 1 0 0 0 0 1 1 1 2 2 2 2 2 1 2 2 2 2 3 5 8 9 10 11 12 13 13 13 14 15 16 17 17 17 19 20 21
1 1 1 1 1 1 1 1 1 1 2 1 2 2 1 1 1 2 2 2 3 5 8 9 10 11 12 13 13 14 14 15 15 16 16 17 18 19
2 2 2 1 1 1 1 1 0 0 1 1 1 1 1 1 1 2 2 2 2 3 5 7 8 9 11 12 13 14 14 15 15 15 16 16 17 17
2 3 2 3 3 3 2 2 1 1 1 1 1 1 2 2 1 1 2 2 2 2 2 3 5 7 8 9 11 12 13 15 15 16 16 17 17 17
1 1 2 3 4 4 3 3 2 1 1 1 0 1 2 2 1 1 1 2 2 1 1 2 2 3 5 8 9 11 12 13 14 15 16 17 17 17
1 1 1 1 2 3 3 4 4 3 2 1 1 1 2 2 1 1 1 1 2 2 1 3 1 3 3 5 9 10 11 12 12 13 14 15 16 17
1 1 0 0 1 1 1 2 1 1 2 3 2 2 2 2 1 1 1 2 3 3 1 3 2 3 4 6 8 9 10 11 11 12 13 14 15 16
1 1 1 0 0 2 3 2 2 1 1 1 2 2 2 2 2 2 2 2 3 2 0 2 2 3 4 4 7 7 7 8 9 10 11 12 14 15
0 1 2 1 1 3 4 3 2 2 3 3 2 2 3 2 1 1 1 1 2 2 1 1 2 2 3 3 4 5 6 6 7 9 10 11 12 12
1 2 2 3 3 4 4 3 2 0 2 3 4 5 5 6 6 2 1 0 1 2 2 1 2 2 3 3 2 3 4 6 7 8 9 9 9 7
2 1 1 3 4 4 4 3 3 2 1 2 3 3 4 4 4 3 2 0 0 1 2 1 1 1 2 3 3 2 2 3 4 5 7 8 9 7
3 1 1 3 4 5 4 4 4 4 3 3 3 3 3 3 3 3 4 3 1 1 3 2 1 1 2 3 3 3 3 3 3 3 3 6 7 9
2 3 3 4 4 4 5 5 4 3 3 3 2 1 1 2 3 3 4 4 4 5 6 4 2 2 1 3 3 3 4 3 3 3 4 3 3 3
2 3 5 6 5 4 4 4 3 3 3 2 1 1 2 2 3 3 3 3 3 4 6 7 5 3 2 3 3 4 4 3 3 4 4 4 3 3
4 3 3 2 3 3 3 3 3 3 3 2 2 2 2 2 2 2 2 2 2 3 5 5 5 5 3 3 3 4 4 4 4 4 4 5 5 5
6 4 3 3 3 3 3 2 2 2 2 2 2 1 1 2 2 2 2 2 2 3 4 4 5 5 4 3 2 2 3 4 5 5 4 6 7 5
5 4 4 4 3 3 3 2 2 1 1 2 2 1 1 1 1 2 2 2 2 3 3 3 4 3 5 6 5 3 4 6 6 5 5 5 7 8
4 5 5 4 4 4 3 3 2 2 2 2 1 1 1 1 1 2 2 2 3 3 4 3 3 3 4 6 6 6 7 5 5 6 7 7 7 9
5 5 5 5 4 4 4 3 3 2 2 2 1 1 1 1 1 1 2 4 3 3 4 5 5 8 5 4 6 6 5 7 9 7 7 8 8 7
6 6 5 5 5 5 4 4 3 2 2 2 1 0 0 0 1 2 2 3 3 4 5 6 6 5 4 5 8 9 9 8 9 13 12 11 7 6
7 6 6 5 5 5 4 4 4 3 2 2 1 1 0 1 1 2 3 3 4 5 6 6 6 5 5 6 8 9 11 11 8 8 8 11 16 19
Wind_Direction
154 131 114 299 47 135 148 156 150 136 317 309 327 327 346 9 238 207 220 223 219 222 224 224 222 223 225 229 230 231 230 231 230 226 223 224 226 226
164 111 83 292 9 50 111 126 148 163 216 289 289 296 316 336 350 323 263 238 227 228 231 229 227 227 228 230 233 234 233 234 235 233 230 229 230 229
282 150 206 195 84 46 80 90 114 149 193 291 298 318 344 354 345 327 290 254 243 236 236 234 232 232 235 235 233 233 232 235 237 236 234 235 236 234
233 180 247 159 131 108 106 108 147 174 176 254 313 329 318 300 305 299 302 274 253 248 241 242 242 239 238 239 239 236 233 234 237 237 235 236 239 238
215 211 230 167 183 176 144 137 132 94 151 177 292 309 310 323 340 318 315 317 289 274 249 245 248 247 245 244 244 242 240 239 238 239 239 239 240 241
224 220 217 194 196 194 181 174 149 94 87 110 292 320 315 315 356 330 326 325 310 314 290 262 263 260 256 253 250 246 243 242 241 241 241 241 241 242
263 238 226 204 195 184 169 172 156 137 109 114 322 348 332 344 322 300 292 308 298 300 308 286 272 266 266 261 256 251 246 245 244 243 244 243 243 242
235 279 268 214 194 174 157 150 153 158 170 168 183 237 286 278 272 283 290 348 308 302 313 281 254 265 266 261 256 253 250 247 245 245 246 246 245 245
194 218 235 128 162 141 141 119 99 127 162 167 177 228 248 247 227 260 235 226 244 270 292 275 271 266 268 275 268 259 255 254 253 252 250 248 248 247
179 184 172 219 155 143 126 100 59 21 336 174 186 228 242 241 217 224 239 264 280 293 253 267 283 270 276 277 277 273 265 260 263 265 262 258 255 253
31 129 160 167 164 133 125 118 68 3 21 62 84 45 18 11 60 76 35 32 322 312 348 276 292 296 286 279 288 294 288 282 279 274 271 266 262 258
61 53 96 114 116 125 134 137 128 342 26 33 33 27 24 24 35 60 113 116 282 303 326 338 312 336 313 297 304 321 317 305 296 287 282 277 271 257
127 76 57 84 95 108 126 140 150 134 85 70 55 38 30 24 20 20 21 99 191 278 316 344 313 313 276 295 306 304 313 314 310 296 291 287 277 254
155 168 148 93 90 92 99 105 100 92 85 80 70 50 31 11 0 2 3 11 16 286 326 349 293 275 283 288 290 306 310 311 308 300 305 305 289 274
162 164 139 99 86 79 83 84 83 87 91 87 77 44 359 344 357 359 2 8 9 12 9 5 344 296 261 266 283 292 304 307 304 304 306 299 289 288
119 113 100 87 80 77 72 66 69 92 105 104 96 35 6 16 20 12 4 2 8 350 350 357 352 335 299 281 277 288 289 289 310 308 302 296 288 276
133 102 87 83 78 66 66 68 67 73 77 74 75 49 29 23 10 4 11 16 15 341 337 339 338 327 289 272 294 296 299 300 299 303 305 299 283 274
136 135 140 137 134 129 116 93 76 80 88 93 85 74 49 27 9 3 13 17 358 339 333 330 341 347 345 325 278 296 314 311 310 304 296 294 293 287
139 153 158 160 156 148 141 136 131 117 108 101 93 80 62 36 24 6 1 357 342 328 322 328 343 353 340 321 306 305 311 307 311 307 295 285 285 289
155 163 166 165 160 155 153 150 141 123 104 101 91 67 58 50 23 358 348 336 325 323 324 327 326 317 295 289 291 296 297 291 300 300 296 292 283 280
168 167 167 164 163 160 158 154 148 142 131 115 94 72 52 41 355 331 324 326 326 319 317 309 294 299 288 292 295 293 286 282 285 286 293 298 300 296
172 171 170 167 164 162 160 155 148 146 141 131 133 129 60 36 309 312 310 309 304 299 298 298 302 309 306 297 294 295 297 297 288 289 284 278 282 287
174 172 169 168 165 161 160 160 160 164 165 163 166 194 233 283 286 289 294 295 297 302 305 308 311 306 298 291 292 294 297 301 301 298 288 280 279 278
Height
1490 1490 1491 1491 1491 1492 1492 1493 1494 1494 1494 1495 1495 1496 1497 1498 1499 1500 1501 1503 1504 1506 1508 1510 1512 1514 1516 1518 1520 1521 1523 1525 1527 1528 1530 1531 1533 1534
1490 1490 1490 1490 1490 1491 1491 1492 1492 1493 1493 1493 1494 1494 1495 1496 1496 1498 1499 1500 1502 1503 1505 1506 1508 1510 1512 1513 1515 1517 1519 1520 1522 1524 1525 1527 1529 1530
1489 1489 1489 1489 1489 1489 1490 1490 1491 1491 1491 1492 1492 1493 1493 1494 1494 1495 1496 1497 1498 1499 1501 1502 1504 1505 1507 1509 1510 1512 1514 1515 1517 1519 1520 1522 1523 1525
1489 1489 1488 1488 1488 1488 1489 1489 1490 1490 1491 1490 1491 1491 1491 1491 1492 1492 1493 1494 1495 1496 1497 1498 1499 1501 1502 1504 1505 1507 1508 1510 1512 1513 1515 1516 1518 1519
1488 1488 1487 1487 1487 1487 1488 1488 1488 1489 1489 1489 1489 1489 1489 1489 1489 1490 1490 1491 1492 1493 1494 1495 1496 1497 1498 1499 1500 1502 1503 1505 1506 1508 1509 1510 1512 1513
1488 1487 1487 1486 1486 1486 1487 1487 1487 1487 1488 1487 1487 1487 1487 1487 1487 1487 1488 1488 1489 1490 1490 1491 1492 1493 1494 1495 1496 1497 1498 1499 1500 1502 1503 1504 1506 1507
1486 1486 1486 1486 1486 1486 1486 1486 1486 1486 1486 1486 1486 1486 1486 1485 1485 1485 1486 1486 1486 1487 1487 1488 1488 1489 1490 1490 1491 1492 1493 1494 1495 1496 1497 1498 1499 1500
1485 1485 1485 1485 1485 1485 1485 1485 1485 1484 1484 1484 1484 1484 1484 1484 1484 1484 1483 1483 1483 1484 1484 1484 1484 1485 1485 1486 1486 1487 1488 1489 1489 1490 1491 1492 1493 1494
1483 1483 1483 1483 1483 1483 1484 1483 1483 1483 1483 1483 1483 1483 1483 1483 1482 1482 1481 1481 1481 1481 1481 1480 1481 1481 1481 1481 1482 1483 1483 1484 1484 1485 1485 1486 1486 1487
1481 1481 1481 1481 1482 1482 1482 1482 1482 1482 1481 1481 1481 1481 1481 1481 1480 1480 1479 1479 1479 1479 1478 1477 1477 1477 1477 1478 1478 1478 1479 1479 1479 1479 1480 1480 1480 1481
1478 1478 1479 1479 1479 1480 1480 1480 1480 1480 1480 1480 1480 1479 1479 1479 1478 1478 1477 1476 1476 1476 1475 1475 1474 1473 1473 1474 1474 1474 1474 1474 1474 1474 1474 1474 1474 1474
1476 1476 1476 1477 1477 1477 1478 1478 1478 1478 1478 1478 1478 1478 1477 1477 1476 1476 1475 1474 1473 1473 1472 1472 1471 1471 1469 1469 1469 1469 1469 1469 1469 1469 1469 1468 1468 1468
1473 1474 1474 1475 1475 1475 1475 1476 1476 1476 1476 1476 1476 1475 1475 1475 1474 1474 1473 1472 1471 1470 1470 1469 1468 1467 1467 1465 1464 1465 1464 1464 1463 1463 1463 1462 1462 1462
1471 1472 1472 1472 1473 1473 1473 1473 1473 1473 1473 1473 1473 1473 1473 1472 1472 1471 1471 1470 1469 1468 1467 1466 1465 1464 1463 1461 1460 1459 1459 1459 1458 1457 1457 1456 1456 1455
1469 1470 1470 1470 1470 1470 1470 1471 1471 1471 1471 1471 1471 1470 1470 1470 1469 1469 1468 1467 1467 1465 1464 1463 1461 1460 1459 1458 1456 1454 1454 1453 1453 1452 1451 1450 1449 1448
1467 1467 1468 1468 1468 1468 1468 1468 1468 1469 1469 1469 1468 1468 1468 1467 1467 1466 1465 1464 1463 1462 1461 1460 1458 1456 1455 1453 1452 1450 1449 1448 1447 1446 1445 1444 1443 1442
1465 1465 1465 1466 1466 1466 1466 1466 1466 1466 1466 1466 1466 1466 1465 1465 1464 1463 1462 1461 1460 1458 1457 1456 1454 1453 1451 1449 1448 1446 1444 1443 1442 1440 1438 1436 1436 1436
1462 1462 1463 1463 1464 1464 1464 1464 1464 1464 1464 1464 1464 1463 1463 1462 1461 1460 1459 1458 1456 1455 1453 1451 1450 1448 1447 1445 1445 1442 1440 1438 1436 1435 1433 1430 1428 1429
1459 1459 1460 1461 1461 1462 1462 1462 1462 1462 1462 1461 1461 1461 1460 1459 1458 1457 1456 1455 1453 1452 1450 1449 1447 1444 1442 1439 1439 1439 1436 1433 1431 1429 1427 1425 1422 1420
1455 1456 1457 1458 1458 1459 1459 1459 1459 1459 1459 1459 1458 1458 1457 1456 1455 1454 1453 1451 1450 1448 1447 1445 1444 1442 1439 1437 1433 1431 1431 1429 1425 1422 1420 1417 1415 1414
1451 1452 1453 1454 1455 1456 1456 1456 1456 1456 1456 1456 1455 1455 1454 1453 1452 1451 1449 1448 1446 1444 1442 1441 1439 1438 1435 1433 1429 1425 1425 1424 1421 1418 1414 1411 1407 1405
1447 1448 1450 1451 1452 1453 1453 1453 1453 1453 1453 1452 1452 1451 1451 1450 1448 1447 1445 1444 1442 1440 1438 1436 1434 1432 1430 1427 1423 1419 1416 1415 1414 1412 1410 1407 1403 1398
1443 1444 1446 1447 1448 1449 1449 1449 1449 1449 1449 1449 1448 1448 1447 1446 1444 1443 1441 1440 1438 1436 1433 1431 1429 1426 1424 1421 1418 1413 1410 1407 1404 1402 1400 1399 1397 1394